User: anonymous   Login
Location: Cincinnati Observatory Center
(39.1389°N, 84.4225°W)
Time: 15:45:57
(UTC-04:00)
Language:

JAS-1B - Orbit

View from above orbital plane
View from above orbital plane
View from above satellite
View from above satellite

Ground track
Ground track

The orbit data is extracted from the following two-line orbital elements,

1 20480U 90013C   17233.33831241 -.00000021  00000-0  31769-4 0  9992
2 20480  99.0647 354.3445 0539479 243.4164 111.0695 12.83416557290073
Epoch (UTC): 21 August 2017 08:07:10
Eccentricity: 0.0539479
inclination: 99.0647°
perigee height: 912 km
apogee height: 1743 km
right ascension of ascending node: 354.3445°
argument of perigee: 243.4164°
revolutions per day: 12.83416557
mean anomaly at epoch: 111.0695°
orbit number at epoch: 29007

The dashed part of the orbit path shows where the satellite is in the earth's shadow,  

DLR